Theta_e
352 350 348 341 323 322 314 318 327 324 325 332 329 328 325 329 323 314 337 342 347 349 355 358 364 362 361 361 362 363 362 362 362 362 362 361 361 361 360 361 359 358 359 359 357 356 356 355 355
350 347 344 335 319 309 312 323 322 326 331 331 332 331 328 325 332 334 335 345 350 352 355 356 362 363 362 361 361 363 361 362 362 362 361 361 361 361 360 360 361 360 358 358 358 356 356 356 356
348 347 333 325 318 312 315 324 325 330 332 330 329 333 330 327 334 334 340 349 352 352 354 357 363 363 362 362 363 362 361 362 362 361 361 359 360 360 361 361 360 358 358 358 357 357 356 356 355
342 340 336 318 314 321 323 326 329 329 332 333 330 325 333 339 335 339 348 351 351 353 354 361 362 362 361 362 362 360 361 362 362 362 360 361 361 360 361 360 360 358 357 358 358 358 356 354 354
342 334 316 315 318 323 327 330 331 328 330 329 330 324 327 336 341 345 348 351 351 351 352 356 363 363 361 361 363 360 361 362 362 362 361 361 360 360 360 360 359 360 359 359 359 358 356 355 355
334 327 311 308 315 323 328 331 333 329 329 328 325 325 329 339 340 345 350 351 353 352 353 355 361 363 361 360 362 360 361 361 361 360 361 362 362 361 361 360 359 359 359 359 359 357 356 356 356
326 317 312 313 316 320 325 332 330 328 327 326 330 324 331 334 341 347 349 351 353 354 354 352 354 358 361 360 361 360 361 361 361 362 362 362 362 361 361 361 360 359 359 357 356 356 356 357 357
330 320 316 318 317 317 328 329 334 331 327 334 333 322 325 334 342 348 349 350 351 352 353 350 351 352 353 355 361 360 360 360 360 360 361 361 361 360 360 359 359 360 359 357 357 356 356 358 358
331 315 311 316 318 322 329 327 336 336 329 332 332 330 334 339 345 344 345 347 348 351 350 350 349 350 351 354 356 360 361 361 360 359 360 357 353 353 356 358 360 359 359 358 358 358 359 358 357
327 313 314 323 325 324 331 332 331 329 328 326 328 333 336 338 342 338 338 339 344 346 349 348 349 350 351 356 353 354 356 355 354 354 351 349 351 353 354 356 359 359 358 359 358 358 358 352 351
329 318 325 325 329 328 328 329 333 329 324 326 325 329 333 336 339 336 337 338 341 345 350 348 348 349 350 352 351 352 352 352 351 348 345 347 351 354 353 351 344 341 349 348 351 349 348 349 350
321 328 329 326 329 326 325 331 329 330 330 332 331 332 333 333 337 335 336 338 340 343 347 348 348 347 348 349 350 350 350 350 349 346 341 348 349 349 349 348 345 346 347 346 349 351 352 350 350
323 324 327 331 330 325 327 328 331 330 332 333 332 333 332 332 335 338 340 341 343 343 347 347 347 346 347 346 348 348 348 349 349 346 340 347 346 346 345 347 348 348 349 349 347 351 349 346 342
319 324 323 325 324 326 321 324 330 330 331 329 329 330 332 332 333 339 341 340 342 344 345 346 346 346 345 343 345 346 346 347 348 347 347 341 343 345 346 348 349 350 350 349 347 350 347 344 342
314 309 313 315 319 322 325 318 325 329 329 326 327 329 331 332 334 338 341 341 342 343 345 344 344 345 343 343 343 344 346 347 347 347 348 344 347 346 347 348 350 350 351 349 348 350 346 343 338
305 305 303 312 318 323 322 311 328 329 325 324 326 328 330 329 333 338 341 342 343 343 343 344 346 344 342 342 342 342 344 346 346 348 349 349 349 348 349 349 351 351 351 351 350 348 340 342 338
296 298 303 309 318 321 319 313 328 330 324 323 325 326 327 327 334 337 340 342 343 343 342 341 343 342 342 342 341 341 343 344 345 348 349 350 351 349 351 349 350 351 350 351 350 347 345 341 341
293 295 301 304 312 319 316 315 326 328 325 322 323 324 324 325 332 337 339 341 343 342 341 340 342 341 341 341 342 343 344 344 344 348 350 351 351 352 350 348 350 345 349 349 351 346 343 343 342
299 300 302 306 312 316 315 316 325 327 326 324 323 322 322 323 331 337 339 340 341 340 338 339 339 340 341 341 339 341 340 343 345 347 350 351 353 353 348 349 347 345 349 349 348 340 338 337 338
297 295 297 304 310 315 314 315 325 327 325 326 327 327 328 329 330 335 337 339 340 338 336 338 339 339 343 342 342 342 341 342 345 346 350 352 353 353 349 350 347 349 349 347 346 344 340 337 338
295 293 294 299 305 311 312 310 319 326 328 329 329 330 331 331 331 333 335 337 338 338 335 337 339 339 343 343 342 341 341 341 342 344 347 350 352 355 353 350 349 349 352 348 349 345 340 336 338
289 300 301 299 298 295 309 296 308 322 323 326 327 329 329 331 333 334 334 336 337 337 338 337 339 339 342 343 342 341 339 337 338 341 344 349 352 353 354 352 351 351 352 349 349 348 343 339 337
294 300 298 299 296 294 299 297 300 317 319 323 327 329 330 332 333 333 334 336 338 339 338 338 338 339 341 343 343 342 340 338 339 341 342 346 350 353 355 354 353 351 351 351 351 347 344 337 336
302 298 297 296 294 290 296 299 297 309 317 323 327 329 331 332 333 335 336 337 337 340 339 339 338 338 340 343 343 342 341 337 339 338 339 341 348 350 353 355 353 353 352 351 349 350 346 340 337
300 294 286 285 287 289 297 295 299 307 318 323 326 329 332 333 333 334 334 335 337 338 338 339 339 337 339 342 343 342 341 340 339 339 338 338 342 347 350 353 353 352 352 352 352 351 349 344 341
297 294 286 281 284 291 295 292 299 310 316 325 327 330 332 333 334 334 335 335 337 338 338 339 339 338 339 340 342 343 343 341 342 341 341 340 341 345 351 352 353 353 353 352 352 350 350 349 346
296 293 297 289 287 287 295 296 304 308 311 317 321 325 329 332 333 335 336 337 337 338 338 338 339 339 340 340 341 342 343 342 342 342 342 342 343 346 349 352 353 353 353 353 353 350 350 351 349
297 301 292 289 285 281 289 291 298 303 307 313 317 320 326 331 332 334 336 337 338 339 340 339 340 340 341 341 342 342 343 343 344 343 342 341 342 346 348 349 352 354 354 354 353 352 352 351 350
294 295 295 295 291 287 285 291 300 305 309 310 316 321 325 329 331 331 332 336 338 340 340 338 339 340 341 342 343 343 344 344 344 343 343 343 342 343 347 349 350 351 352 353 353 353 353 352 352
295 292 294 293 290 291 289 293 303 306 307 310 312 321 325 329 330 331 333 334 335 337 339 338 339 340 342 343 343 344 345 345 344 344 344 345 343 343 345 348 349 351 353 353 352 352 353 352 351
Wind_Speed
11 7 2 1 2 1 2 4 4 5 2 1 14 4 5 5 3 3 5 6 11 9 7 11 16 16 17 15 15 14 15 15 14 14 13 14 13 13 14 12 11 12 11 10 10 10 10 10 10
6 8 2 1 2 1 3 2 7 10 1 9 7 8 5 3 4 9 7 9 11 10 6 8 16 15 17 15 15 14 14 14 13 13 13 13 12 12 13 13 12 12 11 9 9 10 10 10 9
7 6 1 1 1 2 1 3 2 7 11 11 5 7 3 4 8 12 8 12 11 8 6 10 16 15 16 14 14 15 14 12 11 13 12 11 11 13 13 12 10 8 10 10 10 10 10 10 9
6 2 2 2 2 4 3 3 4 5 5 7 10 9 4 2 12 6 14 13 12 9 6 15 16 15 16 14 13 15 13 11 12 13 12 11 11 12 12 11 9 9 9 11 10 10 9 9 8
1 1 0 2 3 3 3 4 9 9 5 4 4 5 6 6 11 16 13 12 13 9 6 10 15 15 15 14 12 14 12 12 11 12 12 11 11 12 11 11 10 9 10 11 11 10 9 8 7
2 2 0 2 2 4 1 1 3 9 8 8 9 10 4 11 16 12 12 10 10 10 7 8 14 15 14 14 12 12 11 11 11 10 10 12 11 11 10 10 10 10 10 11 11 11 10 9 8
1 2 1 2 3 3 2 4 1 6 8 5 14 6 6 13 13 11 11 8 9 8 6 6 6 12 14 13 12 12 11 10 9 10 10 11 10 9 9 9 10 11 10 11 11 12 10 9 9
3 2 2 4 3 4 1 4 5 5 4 12 11 7 10 13 15 12 10 7 7 6 6 6 5 6 6 6 12 12 10 10 9 9 9 9 8 8 7 6 7 10 9 10 11 11 10 9 7
3 1 2 4 6 3 3 4 3 9 12 3 6 5 17 21 16 14 12 8 9 6 6 5 5 6 5 4 6 10 11 10 9 7 8 6 3 4 4 4 7 8 8 8 9 10 9 9 6
3 2 6 4 3 4 6 5 7 6 8 5 10 19 21 19 18 21 19 15 14 12 8 5 6 6 5 4 3 4 4 3 4 4 4 3 2 3 2 2 6 8 7 7 8 7 8 6 3
6 6 1 4 7 10 5 4 6 10 3 6 21 24 23 20 19 21 19 17 17 16 9 6 6 5 5 4 3 2 2 2 2 3 1 1 2 2 2 2 3 3 5 3 4 3 3 3 2
4 10 6 5 5 3 3 7 5 10 5 17 22 28 26 23 20 22 20 18 17 17 15 7 6 6 5 3 3 3 2 2 2 2 2 2 2 1 2 2 2 2 1 3 3 1 1 2 3
11 4 3 10 7 4 4 7 4 8 8 19 23 22 22 18 18 20 18 13 13 16 13 10 7 7 5 4 3 3 3 2 3 3 3 2 2 3 2 2 1 2 1 3 3 2 2 2 1
6 12 9 7 5 5 6 5 7 5 16 21 24 23 19 18 18 16 14 15 14 13 11 10 9 7 6 5 5 3 3 3 3 3 3 4 3 3 2 1 2 2 1 3 2 1 1 2 2
6 5 4 5 4 5 6 3 6 16 17 23 22 19 17 16 16 17 15 15 15 12 11 11 10 7 7 6 5 4 4 4 3 3 4 4 4 3 3 2 2 2 2 3 1 1 2 3 3
6 3 2 2 6 5 8 5 3 17 19 21 21 19 17 18 18 13 15 14 14 12 12 10 10 9 7 6 5 4 4 3 3 3 3 5 4 4 4 3 2 2 2 2 2 2 2 3 2
5 4 6 5 6 3 5 3 10 14 16 20 19 19 17 16 16 15 15 15 15 13 12 10 9 9 9 6 4 5 5 4 3 3 4 5 5 4 3 2 2 3 2 1 2 1 1 1 1
7 4 5 5 5 8 5 0 13 14 16 21 21 19 19 19 19 16 15 15 14 12 11 11 9 7 7 4 3 2 2 3 3 4 4 6 4 3 3 3 3 3 1 1 1 3 2 1 1
4 5 6 6 7 6 11 6 15 16 13 16 19 20 20 21 17 15 14 14 14 13 12 13 12 8 7 3 4 2 3 2 1 3 5 6 5 4 4 2 3 3 3 2 2 2 4 2 2
6 2 4 4 3 8 6 13 15 20 23 24 22 21 20 17 17 17 16 15 17 15 15 13 14 9 8 6 3 3 3 2 2 3 4 5 6 6 5 4 4 4 3 3 3 3 2 1 1
11 7 4 2 3 6 2 7 9 14 9 14 15 16 18 22 21 20 19 18 16 17 16 14 15 12 11 9 4 3 3 3 2 1 2 4 6 6 6 5 4 4 3 3 2 3 4 3 0
11 13 14 5 2 4 6 5 7 11 18 19 17 18 19 20 19 18 20 19 17 17 15 15 14 13 11 11 9 8 6 6 4 4 3 4 6 7 6 5 5 4 3 4 3 3 3 3 3
13 7 10 8 4 3 4 0 8 12 13 18 20 20 20 21 22 22 23 22 17 15 15 14 14 13 12 12 12 10 8 4 3 3 6 5 5 6 7 6 5 4 3 3 4 4 4 3 3
3 1 4 3 4 10 13 9 8 8 14 16 18 21 21 21 22 20 18 17 17 16 15 14 14 14 14 13 14 13 13 7 5 4 5 4 3 4 5 5 5 4 3 4 4 3 4 4 3
12 9 2 2 5 15 9 10 13 6 11 18 24 23 23 21 20 20 20 20 19 19 17 15 15 15 15 16 15 13 13 11 11 9 6 6 4 3 5 5 5 4 5 4 4 4 4 4 3
11 12 8 9 7 13 6 9 8 19 8 17 16 22 19 18 19 22 22 21 21 21 19 19 19 17 15 16 16 15 13 9 8 8 6 7 6 5 6 7 6 7 6 5 4 3 4 4 4
6 17 12 4 3 1 9 5 9 5 11 11 17 13 18 21 21 21 22 22 22 21 23 21 19 19 18 18 15 13 12 11 10 9 8 6 5 6 6 8 9 8 7 7 6 5 6 4 5
9 6 7 4 7 6 4 6 9 9 10 9 8 13 15 19 19 19 18 22 22 22 21 20 21 21 18 18 16 14 15 14 11 8 9 7 7 6 7 8 8 8 8 8 8 6 4 6 5
7 9 6 8 7 8 2 7 7 11 15 14 11 14 16 18 20 21 20 19 21 20 20 20 20 20 18 17 16 16 14 14 12 10 10 10 8 9 8 8 8 9 9 9 9 8 7 8 7
3 4 4 9 13 6 3 8 5 10 9 13 15 14 15 18 22 22 23 19 18 21 20 20 20 19 19 18 17 17 15 14 14 12 12 11 11 9 10 9 9 10 9 8 10 10 8 10 9
Wind_Direction
165 144 97 214 223 229 269 214 177 156 231 199 152 151 149 22 128 180 143 135 125 139 146 132 128 129 123 124 122 123 120 117 118 115 117 119 125 129 134 129 123 122 120 109 101 95 99 100 105
138 128 217 277 283 153 272 82 200 166 210 128 115 94 60 90 85 119 125 147 129 136 133 131 130 133 125 126 127 117 115 116 120 124 119 120 128 129 119 125 123 126 127 112 104 101 97 100 101
154 185 269 205 279 249 290 30 354 138 146 135 100 49 65 88 118 134 138 134 129 128 125 145 135 136 129 132 125 118 123 120 124 116 114 119 121 121 117 117 118 120 112 108 106 104 103 102 107
161 201 237 210 194 258 220 325 309 128 54 67 109 78 71 267 131 136 136 135 128 135 136 138 139 141 132 129 131 124 126 117 117 119 113 109 106 110 113 115 113 99 98 104 105 110 105 102 105
261 203 240 182 240 254 220 281 259 149 89 77 119 98 94 106 114 130 131 134 139 134 139 140 143 142 139 133 130 126 127 111 114 117 121 115 112 113 111 111 111 99 94 96 96 100 112 111 101
184 83 126 236 251 293 197 117 331 116 133 141 103 118 95 124 133 139 133 134 140 133 132 148 149 140 147 136 132 129 128 121 118 120 123 115 110 111 111 109 105 100 94 93 101 109 108 106 104
143 131 232 296 267 277 68 131 113 84 127 127 142 99 112 143 137 134 129 127 132 125 130 131 152 147 149 145 143 137 136 131 123 118 114 114 119 119 118 114 111 102 100 98 104 112 114 103 98
152 138 200 221 241 282 61 170 143 113 70 123 143 153 159 156 145 129 130 125 127 127 126 143 147 122 131 149 148 148 144 140 132 126 122 122 118 119 117 112 107 102 97 93 97 111 116 107 94
137 72 246 233 183 230 220 163 128 102 137 157 154 128 142 143 137 136 146 145 145 136 137 148 136 135 143 143 162 153 151 148 141 134 123 83 84 69 77 112 100 98 98 100 101 104 110 114 109
163 185 225 216 178 189 136 126 136 127 130 66 91 115 139 145 148 157 163 164 164 170 161 155 147 148 151 159 129 138 155 105 95 92 109 120 116 133 113 352 96 76 60 89 85 106 113 99 101
171 216 232 249 220 150 138 132 160 135 197 167 149 148 152 153 156 163 169 171 171 174 173 162 160 151 161 149 140 135 119 118 111 126 140 124 74 72 87 68 36 25 63 48 48 55 85 106 131
222 232 254 301 207 155 179 139 165 170 202 152 161 159 156 158 164 169 172 174 174 177 180 164 168 156 173 145 150 160 157 137 150 182 169 155 129 121 131 114 93 64 71 70 35 6 340 165 198
229 243 224 247 286 292 152 198 191 190 112 140 148 159 164 158 163 171 174 174 175 181 180 176 171 171 175 167 161 164 182 172 180 180 165 157 179 164 141 143 137 108 80 78 38 29 36 22 56
219 238 273 287 261 243 200 208 144 116 133 141 153 165 170 167 167 166 171 176 178 181 181 173 183 180 167 177 179 175 180 189 193 192 181 184 190 165 144 203 184 105 7 81 85 23 65 44 83
279 337 328 232 206 239 157 212 207 143 146 149 157 164 171 175 178 179 176 179 178 186 176 180 181 176 178 183 185 175 196 190 201 201 192 193 197 194 152 218 210 138 106 74 60 27 14 84 52
174 98 339 278 177 210 145 244 129 154 149 157 162 169 180 185 188 179 182 182 181 177 182 180 186 184 182 182 181 181 196 199 208 204 187 195 209 180 160 186 198 136 92 120 79 49 14 21 45
357 187 202 304 195 141 159 244 155 161 156 163 171 174 185 190 194 189 183 187 182 179 174 180 184 179 184 179 182 188 194 211 214 200 193 199 216 205 176 195 184 125 76 66 111 62 120 197 50
189 174 210 193 220 185 193 124 155 173 170 173 175 182 189 195 199 192 187 184 184 182 177 177 185 179 172 151 149 165 203 227 208 203 191 187 198 198 176 178 162 117 117 122 165 113 82 64 68
174 187 187 220 210 151 207 180 182 181 182 184 181 186 197 202 196 195 195 184 184 185 181 178 181 182 161 146 150 169 193 191 192 188 185 181 179 182 188 194 158 174 148 167 107 99 94 37 83
256 231 226 282 235 171 212 220 185 183 194 188 186 188 196 198 202 200 195 193 191 184 188 182 190 173 182 183 154 151 156 205 161 156 188 180 181 175 187 189 178 166 143 124 137 115 102 73 49
230 215 227 186 351 221 162 259 168 202 196 201 207 204 194 190 196 200 199 198 194 194 189 187 188 184 185 176 125 94 80 45 54 84 158 198 186 183 190 186 183 163 152 168 160 137 122 136 16
224 218 242 267 35 222 167 257 229 181 200 200 202 201 198 197 198 198 198 202 198 198 190 189 190 185 186 175 175 181 185 185 193 175 174 188 191 194 194 187 183 181 162 175 170 157 135 149 152
232 161 208 233 215 330 262 158 254 176 203 207 205 207 202 200 195 200 200 201 203 189 193 190 188 188 185 183 187 190 200 175 159 162 177 183 191 198 192 188 181 185 187 166 169 170 169 166 148
170 61 135 115 149 243 223 208 263 184 210 207 210 211 207 202 201 198 199 199 205 204 191 189 186 191 183 182 194 194 199 173 164 171 184 195 196 195 196 182 190 182 195 190 182 188 191 183 159
179 144 272 202 207 232 212 213 235 208 216 203 204 209 209 205 197 197 191 196 200 203 193 189 188 194 188 187 189 196 199 185 193 186 186 175 183 189 197 180 184 191 200 206 178 182 191 186 186
200 179 170 192 211 228 180 217 242 221 219 213 210 210 206 208 204 198 193 194 198 199 196 192 191 194 189 191 195 195 196 195 198 189 190 196 192 188 169 192 193 204 195 199 198 195 208 182 200
193 209 176 104 205 142 201 256 307 192 215 215 221 198 199 202 203 208 195 197 196 198 197 192 193 197 191 191 193 198 195 194 196 188 189 194 179 180 180 190 204 207 196 197 197 202 208 195 209
204 176 181 202 203 221 247 206 209 204 220 215 206 201 201 200 200 205 200 196 198 198 198 192 197 195 194 193 193 195 197 196 193 185 191 188 184 179 177 191 203 208 206 204 196 207 203 204 220
188 213 236 177 198 202 178 240 209 202 204 214 208 199 196 197 200 201 201 200 195 196 193 192 194 196 196 196 194 193 196 195 190 190 194 194 189 188 187 190 202 211 210 206 199 206 206 211 220
344 240 254 205 217 225 132 251 233 203 218 221 204 203 202 200 205 202 203 194 185 191 191 189 193 192 196 193 190 195 192 191 192 193 194 188 195 190 194 191 201 215 213 201 201 209 205 213 218